الصفحة الرئيسية
METAR-TAF:

METAR-TAF

مطار :

براغ, التشيك

مطار فاكلاف هافيل الدولي

دائرة عرض: 50-06N, خط طول: 014-15E, ارتفاع: 365 متر

مراقبة الطقس الحالي

تاريخ ووقت الإصدار 40 دقيقة قبل الساعة 21:00UTC
ريح 3 عقدة من الجنوب الشرقي
درجة الحرارة -1°درجة مئوية
الرطوبة 80%
ضغط 1026 hPa
الرؤية 10 كم أو أكثر
غيوم مفككة على ارتفاع 3200 قدم

METAR: LKPR 182100Z 13003KT 9999 BKN032 M01/M04 Q1026 NOSIG

زمن: 22:40 (21:40 UTC)

توقعات

تاريخ ووقت الإصدار 4ساعات و 40 دقيقة قبل الساعة 17:00UTC
التوقعات صالحة من18 الساعة 18 UTC إلى 20 الساعة 00 UTC
ريح 2 عقدةمن اتجاهات متغيرة
الرؤية 10 كم أو أكثر
غيوم مفككة على ارتفاع 3000 قدم
أصبح
من 19 الساعة 04 UTC إلى 19 الساعة 07 UTC
الرؤية 10 كم أو أكثر
الغيوم لا تقل 1500 م ولا وجود لمزنة ركامية السحاب الأسود
أصبح
من 19 الساعة 10 UTC إلى 19 الساعة 13 UTC
ريح 6 عقدة من الشرق/الجنوب الشرقي

TAF: LKPR 181700Z 1818/2000 VRB02KT 9999 BKN030 BECMG 1904/1907 CAVOK BECMG 1910/1913 12006KT

أرصاد الطقس والتوقعات من أكثر من 4000 مطار (تقارير الطقس للمطار METAR والتنبؤ بالطقس بالمطارTAF).

المحطات المتاحة هي النقط الصفراء والحمراء على الخريطة.

حرك المؤشر فوق النقطة لمعرفة اسم المحطة.

ثم انقر لمعرفة أرصاد وتوقعات الطقس.

لتغيير الخارطة: اضغط على الأزرار الخضراء مع رمز الصليب الأسود للتكبير. على الزر الأخضر مع شرطة للتصغير، أو على الأسهم الخضراء للخرائط المجاورة.


METAR-TAF: